CW5624 Weather Reports


time (UTC)temp
C
wind
direction
speed
KPH
gust
KPH
rain 1hr
cm
rain 24hr
cm
rain mn
cm
humidity
%
barometer
mb
20260507165905 17 5 1.6 14.5 0.00 0.00 0.36 45 1006.1
20260507164905 17 19 4.8 14.5 0.00 0.00 0.36 49 1006.3
20260507163905 16 350 3.2 9.7 0.00 0.00 0.36 51 1006.2
20260507162906 16 32 6.4 6.4 0.00 0.00 0.36 54 1006.3
20260507161905 16 5 3.2 9.7 0.00 0.00 0.36 56 1006.6
20260507160905 15 351 3.2 9.7 0.00 0.00 0.36 60 1006.6
20260507155905 15 19 4.8 12.9 0.00 0.00 0.36 59 1006.8
20260507154905 15 279 1.6 11.3 0.00 0.00 0.36 60 1006.9
20260507153905 15 11 3.2 4.8 0.00 0.00 0.36 63 1006.9
20260507152905 15 30 0.0 8.0 0.00 0.00 0.36 65 1006.9
20260507151905 14 5 1.6 8.0 0.00 0.00 0.36 66 1007.0
20260507150905 14 10 3.2 16.1 0.00 0.00 0.36 64 1007.1
20260507145905 15 343 4.8 9.7 0.00 0.00 0.36 64 1007.1
20260507144905 15 5 3.2 6.4 0.00 0.00 0.36 64 1007.2
20260507143906 15 292 0.0 3.2 0.00 0.00 0.36 66 1007.3
20260507142905 15 232 0.0 4.8 0.00 0.00 0.36 66 1007.5
20260507141905 14 324 4.8 6.4 0.00 0.00 0.36 67 1007.5
20260507140905 13 355 0.0 4.8 0.00 0.00 0.36 68 1007.6
20260507135906 13 347 0.0 3.2 0.00 0.00 0.36 68 1007.6
20260507134905 13 355 1.6 4.8 0.00 0.00 0.36 68 1007.5
20260507133906 12 5 0.0 6.4 0.00 0.00 0.36 66 1007.6
20260507132905 12 263 0.0 4.8 0.00 0.00 0.36 57 1007.6
20260507131906 11 32 1.6 4.8 0.00 0.00 0.36 45 1007.7
20260507130905 10 326 0.0 6.4 0.00 0.00 0.36 8 1007.9
20260507125905 9 223 0.0 8.0 0.00 0.00 0.36 100 1007.9
20260507124905 8 19 1.6 8.0 0.00 0.00 0.36 100 1008.0
20260507123905 8 355 1.6 4.8 0.00 0.00 0.36 100 1008.1
20260507122906 7 355 0.0 4.8 0.00 0.00 0.36 100 1008.1
20260507121906 7 351 0.0 1.6 0.00 0.00 0.36 100 1008.0
20260507120905 7 351 0.0 4.8 0.00 0.00 0.36 100 1008.0
20260507115905 7 346 0.0 0.0 0.00 0.00 0.36 100 1007.8
20260507114905 7 346 0.0 0.0 0.00 0.00 0.36 100 1007.9
20260507113906 7 346 0.0 1.6 0.00 0.00 0.36 100 1007.9
20260507112907 7 346 0.0 0.0 0.00 0.00 0.36 100 1007.8
20260507111906 7 346 0.0 0.0 0.00 0.00 0.36 100 1007.7
20260507110905 7 346 0.0 0.0 0.00 0.00 0.36 100 1007.8
20260507105905 7 346 0.0 0.0 0.00 0.00 0.36 100 1007.6
20260507104906 7 346 0.0 0.0 0.00 0.00 0.36 100 1007.5
20260507103905 7 346 0.0 0.0 0.00 0.00 0.36 100 1007.8
20260507102906 7 346 0.0 0.0 0.00 0.00 0.36 100 1007.8
20260507101906 7 346 0.0 0.0 0.00 0.00 0.36 100 1007.5
20260507100907 7 346 0.0 0.0 0.00 0.00 0.33 100 1007.3
20260507095906 7 346 0.0 0.0 0.00 0.00 0.33 100 1007.5
20260507094906 7 346 0.0 0.0 0.00 0.00 0.33 100 1007.1
20260507093906 7 346 0.0 1.6 0.00 0.00 0.30 100 1007.1
20260507092906 7 346 0.0 0.0 0.00 0.00 0.25 100 1007.3
20260507091906 7 346 0.0 6.4 0.00 0.00 0.23 100 1006.8
20260507090907 8 350 1.6 3.2 0.00 0.00 0.20 100 1007.0
20260507085907 8 346 0.0 1.6 0.00 0.00 0.15 100 1007.3
20260507084906 8 346 0.0 3.2 0.00 0.00 0.13 2 1007.2
20260507083906 8 331 0.0 4.8 0.00 0.00 0.08 6 1007.4
20260507082906 9 22 0.0 3.2 0.00 0.00 0.08 11 1006.9
20260507081906 10 22 1.6 6.4 0.00 0.00 0.08 17 1006.9
20260507080906 10 15 0.0 3.2 0.00 0.00 0.03 19 1006.9
20260507075906 10 13 0.0 3.2 0.00 0.00 0.03 23 1007.3
20260507074906 11 13 0.0 3.2 0.00 0.00 0.03 32 1006.8
20260507073906 11 9 0.0 4.8 0.00 0.00 0.03 36 1006.7
20260507072906 11 355 0.0 4.8 0.00 0.00 0.00 36 1006.7
20260507071906 12 355 0.0 3.2 0.00 0.00 0.00 31 1006.1
20260507070906 12 355 0.0 9.7 0.00 0.00 0.00 30 1005.9
20260507065907 12 5 0.0 3.2 0.00 0.00 0.00 25 1006.0
20260507064906 12 9 0.0 3.2 0.00 0.00 0.00 21 1005.9
20260507063906 12 9 0.0 4.8 0.00 0.00 0.00 16 1006.0
20260507062906 12 5 0.0 3.2 0.00 0.00 0.00 12 1006.3
20260507061906 12 5 0.0 6.4 0.00 0.00 0.00 13 1006.0
20260507060906 12 355 0.0 4.8 0.00 0.00 0.00 13 1005.8
20260507055906 12 331 1.6 6.4 0.00 0.00 0.00 13 1006.0
20260507054906 12 9 1.6 3.2 0.00 0.00 0.00 5 1006.1
20260507053906 12 5 0.0 3.2 0.00 0.00 0.00 100 1006.3
20260507052906 12 360 0.0 8.0 0.00 0.00 0.00 100 1006.4
20260507051907 12 355 0.0 4.8 0.00 0.00 0.00 100 1006.4
20260507050906 12 350 0.0 6.4 0.00 0.00 0.00 100 1006.0
20260507045906 12 5 0.0 6.4 0.00 0.00 0.00 100 1006.1
20260507044906 12 5 0.0 9.7 0.00 0.00 0.00 100 1006.2
20260507043906 12 38 0.0 4.8 0.00 0.00 0.00 100 1006.2
20260507042906 12 173 0.0 3.2 0.00 0.00 0.00 100 1006.0
20260507041907 12 176 0.0 6.4 0.00 0.00 0.00 100 1006.0
20260507040906 12 87 0.0 0.0 0.00 0.00 0.00 100 1006.1
20260507035906 12 88 0.0 3.2 0.00 0.00 0.18 100 1006.3
20260507034906 12 115 0.0 0.0 0.00 0.00 0.18 100 1006.4
20260507033906 12 115 0.0 1.6 0.00 0.00 0.18 100 1006.1
20260507032906 12 115 0.0 3.2 0.00 0.00 0.18 100 1005.9
20260507031906 12 120 0.0 6.4 0.00 0.00 0.18 100 1005.8
20260507030906 12 342 0.0 3.2 0.00 0.00 0.18 100 1005.7
20260507025907 12 338 0.0 3.2 0.00 0.00 0.18 100 1005.5
20260507024906 12 80 0.0 3.2 0.00 0.00 0.18 100 1005.5
20260507023907 12 75 0.0 4.8 0.00 0.00 0.18 100 1005.7
20260507022908 12 86 0.0 4.8 0.00 0.00 0.18 100 1005.8
20260507021906 12 113 0.0 4.8 0.00 0.00 0.18 100 1005.6
20260507020908 12 130 0.0 3.2 0.00 0.00 0.18 100 1005.6
20260507015906 12 130 0.0 1.6 0.00 0.00 0.18 100 1005.7
20260507014906 12 130 0.0 1.6 0.00 0.00 0.18 100 1005.5
20260507013906 12 128 0.0 4.8 0.00 0.00 0.18 100 1005.7
20260507012906 12 134 0.0 3.2 0.00 0.00 0.18 100 1005.8
20260507011906 12 136 0.0 4.8 0.00 0.00 0.18 100 1005.9
20260507010907 12 126 1.6 8.0 0.00 0.00 0.18 100 1006.1
20260507005906 12 26 1.6 1.6 0.00 0.00 0.18 100 1006.2
20260507004907 12 22 0.0 3.2 0.00 0.00 0.18 100 1006.2
20260507003907 12 23 0.0 3.2 0.00 0.00 0.18 100 1006.2
20260507002907 12 24 1.6 3.2 0.00 0.00 0.18 100 1006.0
20260507001907 12 242 3.2 8.0 0.00 0.00 0.18 100 1006.0
20260507000907 12 122 0.0 8.0 0.00 0.00 0.18 100 1005.9
20260506235907 12 209 0.0 4.8 0.00 0.00 0.18 100 1005.6
20260506234907 12 24 0.0 8.0 0.00 0.00 0.18 100 1005.7
20260506233907 12 184 0.0 6.4 0.00 0.00 0.15 100 1005.7
20260506232908 13 127 0.0 3.2 0.00 0.00 0.15 100 1005.6
20260506231906 13 53 0.0 4.8 0.00 0.00 0.15 100 1005.6
20260506230907 13 115 0.0 4.8 0.00 0.00 0.13 100 1005.7
20260506225907 13 175 0.0 6.4 0.00 0.00 0.10 100 1005.6
20260506224907 13 205 1.6 4.8 0.00 0.00 0.10 100 1005.6
20260506223907 13 129 1.6 3.2 0.00 0.00 0.10 100 1005.8
20260506222907 13 42 0.0 4.8 0.00 0.00 0.10 100 1005.8
20260506221907 13 28 0.0 6.4 0.00 0.00 0.10 100 1006.1
20260506220907 13 127 0.0 4.8 0.00 0.00 0.10 100 1006.0
20260506215907 14 81 3.2 8.0 0.00 0.00 0.10 100 1006.1
20260506214907 14 222 0.0 9.7 0.00 0.00 0.10 100 1006.1
20260506213907 15 150 0.0 6.4 0.00 0.00 0.10 100 1006.3
20260506212907 15 148 3.2 6.4 0.00 0.00 0.08 100 1006.4
20260506211907 15 51 8.0 8.0 0.00 0.00 0.05 100 1006.3
20260506210907 15 26 0.0 6.4 0.00 0.00 0.05 100 1006.4
20260506205907 15 202 0.0 6.4 0.00 0.00 0.05 100 1006.5
20260506204907 15 99 0.0 4.8 0.00 0.00 0.05 100 1006.6
20260506203907 15 360 1.6 6.4 0.00 0.00 0.05 3 1006.7
20260506202907 15 49 0.0 9.7 0.00 0.00 0.05 7 1006.6
20260506201907 16 30 1.6 12.9 0.00 0.00 0.05 8 1006.7
20260506200907 16 329 3.2 6.4 0.00 0.00 0.05 13 1006.6
20260506195907 16 220 0.0 6.4 0.00 0.00 0.05 21 1006.5
20260506194907 17 195 0.0 9.7 0.00 0.00 0.05 27 1006.4
20260506193907 17 116 0.0 8.0 0.00 0.00 0.03 38 1006.7
20260506192907 18 169 0.0 9.7 0.00 0.00 0.00 46 1006.9
20260506191907 18 92 0.0 8.0 0.00 0.00 0.00 54 1006.8
20260506190907 20 126 0.0 6.4 0.00 0.00 0.00 62 1006.7
20260506185908 20 159 0.0 4.8 0.00 0.00 0.00 65 1006.6
20260506184908 20 214 1.6 8.0 0.00 0.00 0.00 65 1006.7
20260506183907 20 205 0.0 8.0 0.00 0.00 0.00 65 1006.7
20260506182907 21 267 3.2 11.3 0.00 0.00 0.00 64 1006.8
20260506181907 21 22 1.6 12.9 0.00 0.00 0.00 63 1006.9
20260506180907 22 178 8.0 11.3 0.00 0.00 0.00 61 1006.9
20260506175907 22 186 3.2 9.7 0.00 0.00 0.00 60 1007.0
20260506174907 22 39 1.6 8.0 0.00 0.00 0.00 60 1007.0
20260506173907 22 223 3.2 14.5 0.00 0.00 0.00 60 1007.3
20260506172907 22 153 4.8 14.5 0.00 0.00 0.00 61 1007.3
20260506171907 22 69 1.6 19.3 0.00 0.00 0.00 60 1007.3
20260506170907 22 260 3.2 12.9 0.00 0.00 0.00 62 1007.2